K0CPM-2 Weather Reports


time (UTC)temp
C
wind
direction
speed
KPH
gust
KPH
rain 1hr
cm
rain 24hr
cm
rain mn
cm
humidity
%
barometer
mb
20260504234600 22 134 3.2 8.0 0.00 0.00 0.00 54 1011.3
20260504233108 23 123 3.2 8.0 0.00 0.00 0.00 52 1011.5
20260504231558 23 110 1.6 9.7 0.00 0.00 0.00 49 1011.6
20260504230113 24 45 4.8 12.9 0.00 0.00 0.00 48 1011.8
20260504224625 25 291 3.2 9.7 0.00 0.00 0.00 46 1011.8
20260504223054 25 173 3.2 9.7 0.00 0.00 0.00 43 1012.0
20260504221553 25 106 4.8 9.7 0.00 0.00 0.00 42 1012.1
20260504220057 25 31 3.2 9.7 0.00 0.00 0.00 41 1012.3
20260504214550 25 337 3.2 9.7 0.00 0.00 0.00 42 1012.1
20260504213048 26 307 3.2 9.7 0.00 0.00 0.00 40 1012.2
20260504211550 26 20 3.2 17.7 0.00 0.00 0.00 39 1012.5
20260504210059 26 115 3.2 8.0 0.00 0.00 0.00 39 1012.2
20260504204548 26 302 4.8 11.3 0.00 0.00 0.00 38 1012.6
20260504203045 26 5 4.8 11.3 0.00 0.00 0.00 39 1012.8
20260504201546 26 360 6.4 14.5 0.00 0.00 0.00 40 1013.1
20260504200050 26 359 3.2 11.3 0.00 0.00 0.00 38 1013.4
20260504194536 26 273 4.8 14.5 0.00 0.00 0.00 39 1013.6
20260504193033 26 156 4.8 12.9 0.00 0.00 0.00 39 1013.7
20260504191534 26 271 4.8 12.9 0.00 0.00 0.00 43 1013.7
20260504190030 26 46 3.2 11.3 0.00 0.00 0.00 47 1014.0
20260504184534 27 301 1.6 11.3 0.00 0.00 0.00 44 1014.2
20260504183033 26 114 3.2 12.9 0.00 0.00 0.00 44 1014.3
20260504181525 27 359 1.6 11.3 0.00 0.00 0.00 42 1014.4
20260504180025 26 278 3.2 11.3 0.00 0.00 0.00 43 1014.4
20260504174522 26 163 0.0 8.0 0.00 0.00 0.00 41 1014.6
20260504173019 26 205 1.6 8.0 0.00 0.00 0.00 46 1014.6
20260504171518 26 136 4.8 14.5 0.00 0.00 0.00 40 1014.6
20260504081526 13 37 0.0 0.0 0.00 0.00 0.00 85 1014.6
20260504044550 15 130 0.0 0.0 0.00 0.00 0.00 78 1016.4
20260504043108 16 129 0.0 0.0 0.00 0.00 0.00 77 1016.6
20260504041546 17 129 0.0 0.0 0.00 0.00 0.00 76 1016.7
20260504040046 17 121 0.0 3.2 0.00 0.00 0.00 74 1016.5
20260504034551 17 121 0.0 3.2 0.00 0.00 0.00 71 1016.5
20260504033045 18 121 0.0 4.8 0.00 0.00 0.00 67 1016.6
20260504031551 18 124 0.0 1.6 0.00 0.00 0.00 68 1016.5
20260504030101 18 125 0.0 3.2 0.00 0.00 0.00 65 1016.5
20260504024544 18 141 1.6 4.8 0.00 0.00 0.00 61 1016.3
20260504023044 19 132 0.0 4.8 0.00 0.00 0.00 58 1016.3
20260504021547 19 123 1.6 4.8 0.00 0.00 0.00 56 1016.2
20260504020041 18 129 0.0 3.2 0.00 0.00 0.00 59 1016.0
20260504014541 18 122 1.6 8.0 0.00 0.00 0.00 64 1015.8
20260504013047 17 149 0.0 0.0 0.00 0.00 0.00 58 1015.6
20260504011541 18 149 0.0 0.0 0.00 0.00 0.00 53 1015.5
20260504010050 19 149 0.0 0.0 0.00 0.00 0.00 50 1015.5
20260504004545 20 149 0.0 0.0 0.00 0.00 0.00 46 1015.4
20260504003039 21 150 0.0 0.0 0.00 0.00 0.00 44 1015.2
20260504001541 22 158 0.0 0.0 0.00 0.00 0.00 42 1015.2
20260504000038 22 120 0.0 3.2 0.00 0.00 0.00 41 1015.1